Regional Weather Roundup
Issued by NWS State College, PA

Home | Current Version | Previous Version | Text Only | Print | Product List | Glossary On
Versions: 1 2 3 4 5 6 7 8 9 10 11 12 13 14 15 16 17 18 19 20 21 22 23 24 25 26 27 28 29 30 31 32 33 34 35 36 37 38 39 40 41 42 43 44 45 46 47 48 49 50
000
ASUS41 KCTP 132003
RWRCTP

REGIONAL WEATHER ROUNDUP
NATIONAL WEATHER SERVICE STATE COLLEGE PA
300 PM EST SAT FEB 13 2016

Note: "fair" indicates few or no clouds below 12,000 feet with no
significant weather and/or obstructions to visibility.

* = STATION THAT DOES NOT REPORT PRECIPITATION /E.G. RAIN...SNOW...ETC/
    THUNDER OR FOG.

PAZ002>004-007>009-013>016-020>023-029>032-132100-
WESTERN PENNSYLVANIA

CITY           SKY/WX    TMP DP  RH WIND       PRES   REMARKS
ERIE           LGT SNOW  10   0  63 NW22G31   30.34S VSB 3/4 WCI -10
MEADVILLE      SNOW       7  -1  70 W16G26    30.28R VSB 1/2 WCI -11
FRANKLIN*      CLOUDY     7  -6  56 NW16G29   30.27S WCI -11
NEW CASTLE     LGT SNOW   9   1  70 W10       30.35S WCI  -5
BEAVER COUNTY  CLOUDY    12  -4  48 W12G23    30.33R WCI  -2
BUTLER*        PTSUNNY    9  -4  56 W12G22    30.33S WCI  -6
PITTSBURGH INT FLURRIES  11  -4  51 W21G31    30.32S WCI  -8
PITTSBURGH     CLOUDY    12  -5  46 NW14G22   30.31R WCI  -3
INDIANA*       PTSUNNY    9   0  66 NW13G23   30.28R HAZE    WCI  -7
LATROBE        LGT SNOW  10  -2  56 W13G24    30.32R WCI  -5
WASHINGTON CO* PTSUNNY   10  -8  44 W13G23    30.34S WCI  -5
$$

PAZ004>006-010>012-017>019-024>028-033>037-041-042-045-046-049>053-132100-
CENTRAL PENNSYLVANIA

CITY           SKY/WX    TMP DP  RH WIND       PRES   REMARKS
BRADFORD       LGT SNOW   2  -8  63 NW21G30   30.11S VSB 3/4 WCI -20
DUBOIS         CLOUDY     6  -6  57 W22G30    30.16S WCI -15
CLEARFIELD     CLOUDY     9  -5  53 NW17G25   30.18F WCI  -9
JOHNSTOWN      LGT SNOW   5  -6  60 NW17G26   30.13R WCI -14
ALTOONA        FLURRIES  10  -5  50 NW23G36   30.18S WCI -10
STATE COLLEGE  PTSUNNY    9  -4  56 NW17G24   30.19S WCI -10
WILLIAMSPORT   CLOUDY    11 -11  36 NW24G36   30.23R WCI  -9
SELINSGROVE    CLOUDY    13  -9  37 NW15G31   30.25R WCI  -3
FT INDIANTOWN  PTSUNNY   13 -10  34 W18G25    30.22R WCI  -4
CAPITAL CITY   PTSUNNY   15  -7  37 NW22G31   30.25R WCI  -3
HARRISBURG     PTSUNNY   15  -4  42 NW23G32   30.25R WCI  -3
YORK           CLOUDY    15  -5  40 NW18G29   30.24R WCI  -2
$$

PAZ038>040-043-044-047-048-054-055-060>062-067>071-132100-
EASTERN PENNSYLVANIA

CITY           SKY/WX    TMP DP  RH WIND       PRES   REMARKS
SCRANTON       CLOUDY     6 -12  43 W15G29    30.14R WCI -12
MOUNT POCONO   CLOUDY     2 -15  45 NW20G36   29.98R WCI -19
ALLENTOWN      CLOUDY    15  -5  40 NW16G31   30.16R WCI  -1
QUAKERTOWN*    MOCLDY    16  -8  35 NW16G28   30.15R WCI   0
READING        PTSUNNY   16  -7  35 NW29G40   30.20R WCI  -4
LANCASTER      PTSUNNY   15  -1  49 NW25G35   30.22R WCI  -4
COATESVILLE    PTCLDY    12  -4  48 NW21G33   30.19R WCI  -6
POTTSTOWN      PTSUNNY   16  -4  41 W16G30    30.19R WCI   1
BLUE BELL        N/A     18  -4  38 W14G31    30.16R WCI   4
DOYLESTOWN     CLOUDY    15 -10  32 NW22G35   30.14R WCI  -3
WILLOW GROVE   NOT AVBL
NORTH PHILA    CLOUDY    19  -7  31 NW21G37   30.19R WCI   3
PHILADELPHIA   PTSUNNY   19  -7  31 NW22G36   30.21R WCI   2
$$



USA.gov is the U.S. government's official web portal to all federal, state and local government web resources and services.